Assumption Island Airport

Jump to: basic info | weather | runways | comments

Related pages: nearby airports | nearby navaids | notams | map

Basic information (top)

Codes: FSAS
Location: lon -9.742220, lat 46.506802, elev 10 ft / 3 m msl
Status: small_airport

Weather (top)

Current conditions for Prince Said Ibrahim International Airport 219nm (406km) WSW (rec'd 2014/11/01 02:00Z):

FMCH 010200Z 14006KT 090V180 9999 FEW020 BKN030 27/21 Q1013 TEMPO SHRA

Airport forecast for Prince Said Ibrahim International Airport 219nm (406km) WSW (rec'd 2014/10/31 18:00Z):

TAF FMCH 311700Z 3118/0124 09004KT 9999 FEW020 SCT030 PROB30 
      TEMPO 3122/0106 SHRA 
      BECMG 0105/0107 24012KT 
      BECMG 0118/0120 08004KT

Runways (top)

13/31: 3,963 x 75 ft (1,208 x 23 m) — paved — not lighted

Latest comments (top)

No comments yet for Assumption Island Airport

More... (top)

See also NOTAMs and nearby airports and navaids, or visit the Assumption Island Airport page at the main OurAirports website..